Location: Absher
(46.5583°N, 107.9840°W)
Time: 22:52:07
(UTC+00:00)

TIGRISAT - Visible Passes

Search period start: 31 March 2023 00:00
Search period end: 10 April 2023 00:00
Orbit: 601 x 681 km, 97.7° (Epoch: 31 March)

Date Brightness Start Highest point End Pass type
(mag) Time Alt. Az. Time Alt. Az. Time Alt. Az.
31 Mar ? 10:50:33 10° ESE 10:53:50 21° ENE 10:57:12 10° NNE visible
01 Apr ? 11:13:35 10° SE 11:17:34 33° ENE 11:21:39 10° N visible
02 Apr ? 02:14:17 10° NNW 02:17:47 21° WNW 02:21:16 10° WSW visible
02 Apr ? 11:37:01 10° SSE 11:41:22 56° ENE 11:45:52 10° N visible
03 Apr ? 02:39:10 10° NNW 02:41:26 14° WNW 02:43:41 10° W visible
03 Apr ? 10:27:19 10° E 10:29:23 13° ENE 10:31:30 10° NNE visible
03 Apr ? 12:00:48 10° SSE 12:05:15 85° WSW 12:09:53 10° NNW visible
04 Apr ? 10:49:40 10° ESE 10:53:01 21° ENE 10:56:25 10° NNE visible
05 Apr ? 11:12:41 10° SE 11:16:43 33° ENE 11:20:51 10° N visible
06 Apr ? 02:13:26 10° NNW 02:16:56 21° WNW 02:20:24 10° WSW visible
06 Apr ? 11:36:06 10° SSE 11:40:30 56° ENE 11:45:01 10° N visible
07 Apr ? 02:38:17 10° NNW 02:40:33 14° WNW 02:42:48 10° W visible
07 Apr ? 10:26:22 10° E 10:28:30 13° ENE 10:30:39 10° NNE visible
07 Apr ? 11:59:50 10° SSE 12:04:21 86° WSW 12:09:00 10° NNW visible
08 Apr ? 10:48:42 10° ESE 10:52:05 21° ENE 10:55:31 10° NNE visible
09 Apr ? 11:11:41 10° SE 11:15:45 33° ENE 11:19:55 10° N visible
